Volver al catálogo

STARLINK-5774

ActivoComunicacionesVLEO
NORAD 56029·PAYLOAD·🇺🇸 United States

Lanzado Mar 24, 2023 desde Cape Canaveral Space Force Station

Loading…

Próximos Pases (próximas 24 horas)

TLE

ActualizadoSource: CelesTrak SupGP

Época: Sep 14, 2026, 21:26 UTC

1 56029C 23042AV  26257.89354167  .00055839  00000+0  20225-2 0  2577
2 56029  43.0027  56.4252 0001444 272.4023 135.6717 15.27550605    14

Sigue STARLINK-5774 en tiempo real con AllMySat

Download on the App Store